Time,TemperatureF,DewpointF,PressureIn,WindDirection,WindDirectionDegrees,WindSpeedMPH,WindSpeedGustMPH,Humidity,HourlyPrecipIn,Conditions,Clouds,dailyrainin,SoftwareType,DateUTC
2013-02-06 00:07:00,50.4,20.1,30.00,ESE,123,3.0,4.9,30,0.00,,,-99.99,FreeWX-Wi 1.01,2013-02-06 05:07:00,
2013-02-06 00:37:00,49.1,19.0,30.00,SE,126,2.0,2.7,30,0.00,,,-99.99,FreeWX-Wi 1.01,2013-02-06 05:37:00,
2013-02-06 01:07:00,48.6,20.8,30.00,SE,132,1.0,4.0,33,0.00,,,-99.99,FreeWX-Wi 1.01,2013-02-06 06:07:00,
2013-02-06 01:37:00,47.8,22.8,30.00,North,-999,0.0,0.0,37,0.00,,,-99.99,FreeWX-Wi 1.01,2013-02-06 06:37:00,
2013-02-06 02:07:00,48.7,23.7,30.00,North,-999,0.0,0.0,37,0.00,,,-99.99,FreeWX-Wi 1.01,2013-02-06 07:07:00,
2013-02-06 02:37:00,48.2,23.2,30.00,North,-999,0.0,0.0,37,0.00,,,-99.99,FreeWX-Wi 1.01,2013-02-06 07:37:00,
2013-02-06 03:07:00,47.7,23.4,30.00,North,-999,0.0,0.0,38,0.00,,,-99.99,FreeWX-Wi 1.01,2013-02-06 08:07:00,
2013-02-06 03:37:00,47.1,23.4,29.97,North,-999,0.0,3.1,39,0.00,,,-99.99,FreeWX-Wi 1.01,2013-02-06 08:37:00,
2013-02-06 04:07:00,48.2,23.7,29.97,North,-999,0.0,0.0,38,0.00,,,-99.99,FreeWX-Wi 1.01,2013-02-06 09:07:00,
2013-02-06 04:37:00,48.7,26.1,29.97,North,-999,0.0,0.0,41,0.00,,,-99.99,FreeWX-Wi 1.01,2013-02-06 09:37:00,
2013-02-06 05:07:00,49.6,30.2,29.97,North,-999,0.0,4.9,47,0.00,,,-99.99,FreeWX-Wi 1.01,2013-02-06 10:07:00,
2013-02-06 05:37:00,51.3,31.6,29.97,ESE,123,2.0,5.4,47,0.00,,,-99.99,FreeWX-Wi 1.01,2013-02-06 10:37:00,
2013-02-06 06:07:00,51.1,31.6,29.97,SSE,153,2.0,3.6,47,0.00,,,-99.99,FreeWX-Wi 1.01,2013-02-06 11:07:00,
2013-02-06 06:37:00,50.5,31.1,29.97,SSE,159,1.0,3.6,47,0.00,,,-99.99,FreeWX-Wi 1.01,2013-02-06 11:37:00,
2013-02-06 07:07:00,49.5,30.0,29.97,North,-999,0.0,0.0,47,0.00,,,-99.99,FreeWX-Wi 1.01,2013-02-06 12:07:00,
2013-02-06 07:37:00,48.4,29.1,29.97,North,-999,0.0,3.6,47,0.00,,,-99.99,FreeWX-Wi 1.01,2013-02-06 12:37:00,
2013-02-06 08:07:00,48.4,29.7,29.97,South,183,1.0,3.6,48,0.00,,,-99.99,FreeWX-Wi 1.01,2013-02-06 13:07:00,
2013-02-06 08:37:00,47.7,28.9,29.97,South,184,1.0,4.0,48,0.00,,,-99.99,FreeWX-Wi 1.01,2013-02-06 13:37:00,
2013-02-06 09:07:00,47.8,30.0,30.00,North,-999,0.0,4.0,50,0.00,,,-99.99,FreeWX-Wi 1.01,2013-02-06 14:07:00,
2013-02-06 09:37:00,53.6,35.4,30.00,North,-999,0.0,0.0,50,0.00,,,-99.99,FreeWX-Wi 1.01,2013-02-06 14:37:00,
2013-02-06 10:37:00,63.9,33.4,30.00,SSE,167,3.0,8.1,32,0.00,,,-99.99,FreeWX-Wi 1.01,2013-02-06 15:37:00,
2013-02-06 11:07:00,67.6,31.5,30.00,South,191,4.0,10.1,26,0.00,,,-99.99,FreeWX-Wi 1.01,2013-02-06 16:07:00,
2013-02-06 11:37:00,71.1,32.4,29.97,SW,219,5.0,8.7,24,0.00,,,-99.99,FreeWX-Wi 1.01,2013-02-06 16:37:00,
2013-02-06 12:07:00,73.2,33.3,29.97,WSW,245,5.0,10.5,23,0.00,,,-99.99,FreeWX-Wi 1.01,2013-02-06 17:07:00,
2013-02-06 12:37:00,74.3,32.9,29.97,WSW,247,6.0,11.9,22,0.00,,,-99.99,FreeWX-Wi 1.01,2013-02-06 17:37:00,
2013-02-06 13:07:00,75.0,33.6,29.97,WSW,237,6.0,11.0,22,0.00,,,-99.99,FreeWX-Wi 1.01,2013-02-06 18:07:00,
2013-02-06 16:36:00,78.4,34.0,29.85,SW,226,6.0,12.3,20,0.00,,,-99.99,FreeWX-Wi 1.01,2013-02-06 21:36:00,
2013-02-06 16:42:00,78.3,33.8,29.85,SW,226,6.0,8.7,20,0.00,,,-99.99,FreeWX-Wi 1.01,2013-02-06 21:42:00,
2013-02-06 16:47:00,77.5,33.3,29.85,SW,229,5.0,8.3,20,0.00,,,-99.99,FreeWX-Wi 1.01,2013-02-06 21:47:00,
2013-02-06 16:52:00,76.6,32.5,29.85,SW,230,5.0,8.7,20,0.00,,,-99.99,FreeWX-Wi 1.01,2013-02-06 21:52:00,
2013-02-06 16:57:00,76.6,32.5,29.82,SW,230,5.0,6.3,20,0.00,,,-99.99,FreeWX-Wi 1.01,2013-02-06 21:57:00,
2013-02-06 17:02:00,76.3,32.2,29.82,SW,229,5.0,8.3,20,0.00,,,-99.99,FreeWX-Wi 1.01,2013-02-06 22:02:00,
2013-02-06 17:07:00,76.1,32.2,29.82,SW,227,5.0,8.7,20,0.00,,,-99.99,FreeWX-Wi 1.01,2013-02-06 22:07:00,
2013-02-06 17:13:00,75.7,29.3,29.82,SW,226,5.0,10.5,18,0.00,,,-99.99,FreeWX-Wi 1.01,2013-02-06 22:13:00,
2013-02-06 17:18:00,75.7,29.3,29.82,SW,229,5.0,8.7,18,0.00,,,-99.99,FreeWX-Wi 1.01,2013-02-06 22:18:00,
2013-02-06 17:23:00,75.7,29.3,29.82,SW,235,5.0,8.1,18,0.00,,,-99.99,FreeWX-Wi 1.01,2013-02-06 22:23:00,
2013-02-06 17:29:00,75.9,29.3,29.82,WSW,238,4.0,10.1,18,0.00,,,-99.99,FreeWX-Wi 1.01,2013-02-06 22:29:00,
2013-02-06 17:34:00,75.7,29.3,29.82,WSW,238,5.0,10.1,18,0.00,,,-99.99,FreeWX-Wi 1.01,2013-02-06 22:34:00,
2013-02-06 17:39:00,75.6,29.1,29.82,WSW,240,5.0,5.0,18,0.00,,,-99.99,FreeWX-Wi 1.01,2013-02-06 22:39:00,
2013-02-06 17:44:00,75.2,28.8,29.82,WSW,243,5.0,10.1,18,0.00,,,-99.99,FreeWX-Wi 1.01,2013-02-06 22:44:00,
2013-02-06 17:49:00,75.0,28.6,29.82,WSW,245,5.0,5.8,18,0.00,,,-99.99,FreeWX-Wi 1.01,2013-02-06 22:49:00,
2013-02-06 17:54:00,74.8,28.4,29.82,WSW,247,4.0,6.3,18,0.00,,,-99.99,FreeWX-Wi 1.01,2013-02-06 22:54:00,
2013-02-06 17:59:00,75.0,28.6,29.82,WSW,249,4.0,4.9,18,0.00,,,-99.99,FreeWX-Wi 1.01,2013-02-06 22:59:00,
2013-02-06 18:04:00,75.2,28.8,29.82,WSW,251,4.0,13.2,18,0.00,,,-99.99,FreeWX-Wi 1.01,2013-02-06 23:04:00,
2013-02-06 18:09:00,75.2,28.8,29.82,WSW,256,5.0,14.5,18,0.00,,,-99.99,FreeWX-Wi 1.01,2013-02-06 23:09:00,
2013-02-06 18:14:00,75.0,25.7,29.82,WSW,257,5.0,8.1,16,0.00,,,-99.99,FreeWX-Wi 1.01,2013-02-06 23:14:00,
2013-02-06 18:19:00,74.8,25.7,29.82,West,263,5.0,8.7,16,0.00,,,-99.99,FreeWX-Wi 1.01,2013-02-06 23:19:00,
2013-02-06 18:24:00,74.5,25.3,29.82,West,268,5.0,8.7,16,0.00,,,-99.99,FreeWX-Wi 1.01,2013-02-06 23:24:00,
2013-02-06 18:29:00,74.1,25.0,29.82,West,269,5.0,7.6,16,0.00,,,-99.99,FreeWX-Wi 1.01,2013-02-06 23:29:00,
2013-02-06 18:34:00,73.4,24.4,29.82,West,268,5.0,5.0,16,0.00,,,-99.99,FreeWX-Wi 1.01,2013-02-06 23:34:00,
2013-02-06 18:39:00,73.0,24.3,29.82,West,268,5.0,5.0,16,0.00,,,-99.99,FreeWX-Wi 1.01,2013-02-06 23:39:00,
2013-02-06 18:44:00,72.3,23.5,29.82,West,268,4.0,4.0,16,0.00,,,-99.99,FreeWX-Wi 1.01,2013-02-06 23:44:00,
2013-02-06 18:49:00,72.0,23.4,29.82,West,271,4.0,8.1,16,0.00,,,-99.99,FreeWX-Wi 1.01,2013-02-06 23:49:00,
2013-02-06 18:54:00,71.6,23.0,29.82,West,271,4.0,5.8,16,0.00,,,-99.99,FreeWX-Wi 1.01,2013-02-06 23:54:00,
2013-02-06 18:59:00,71.1,24.1,29.82,West,273,4.0,4.0,17,0.00,,,-99.99,FreeWX-Wi 1.01,2013-02-06 23:59:00,
2013-02-06 19:04:00,70.5,23.5,29.82,West,272,4.0,4.0,17,0.00,,,-99.99,FreeWX-Wi 1.01,2013-02-07 00:04:00,
2013-02-06 19:09:00,70.0,23.2,29.82,West,274,4.0,4.0,17,0.00,,,-99.99,FreeWX-Wi 1.01,2013-02-07 00:09:00,
2013-02-06 19:14:00,69.4,22.8,29.82,West,273,3.0,0.0,17,0.00,,,-99.99,FreeWX-Wi 1.01,2013-02-07 00:14:00,
2013-02-06 19:19:00,68.9,22.3,29.82,West,272,3.0,0.0,17,0.00,,,-99.99,FreeWX-Wi 1.01,2013-02-07 00:19:00,
2013-02-06 19:24:00,68.5,21.9,29.82,West,271,2.0,0.0,17,0.00,,,-99.99,FreeWX-Wi 1.01,2013-02-07 00:24:00,
2013-02-06 19:29:00,68.2,21.7,29.82,West,269,2.0,0.0,17,0.00,,,-99.99,FreeWX-Wi 1.01,2013-02-07 00:29:00,
2013-02-06 19:34:00,67.8,21.4,29.82,West,268,1.0,0.0,17,0.00,,,-99.99,FreeWX-Wi 1.01,2013-02-07 00:34:00,
2013-02-06 19:39:00,67.3,21.0,29.82,West,267,1.0,0.0,17,0.00,,,-99.99,FreeWX-Wi 1.01,2013-02-07 00:39:00,
2013-02-06 19:44:00,66.9,20.7,29.82,West,266,1.0,0.0,17,0.00,,,-99.99,FreeWX-Wi 1.01,2013-02-07 00:44:00,
2013-02-06 19:49:00,66.6,20.5,29.82,West,262,1.0,5.4,17,0.00,,,-99.99,FreeWX-Wi 1.01,2013-02-07 00:49:00,
2013-02-06 19:54:00,65.8,23.7,29.85,North,-999,0.0,4.0,20,0.00,,,-99.99,FreeWX-Wi 1.01,2013-02-07 00:54:00,
2013-02-06 19:59:00,65.3,23.2,29.85,North,-999,0.0,2.7,20,0.00,,,-99.99,FreeWX-Wi 1.01,2013-02-07 00:59:00,
2013-02-06 20:04:00,64.8,22.8,29.85,North,-999,0.0,0.0,20,0.00,,,-99.99,FreeWX-Wi 1.01,2013-02-07 01:04:00,
2013-02-06 20:09:00,64.2,23.5,29.85,North,-999,0.0,3.1,21,0.00,,,-99.99,FreeWX-Wi 1.01,2013-02-07 01:09:00,
2013-02-06 20:14:00,63.9,23.2,29.85,North,-999,0.0,3.6,21,0.00,,,-99.99,FreeWX-Wi 1.01,2013-02-07 01:14:00,
2013-02-06 20:19:00,63.5,22.8,29.85,North,-999,0.0,2.7,21,0.00,,,-99.99,FreeWX-Wi 1.01,2013-02-07 01:19:00,
2013-02-06 20:24:00,63.1,22.6,29.85,North,-999,0.0,0.0,21,0.00,,,-99.99,FreeWX-Wi 1.01,2013-02-07 01:24:00,
2013-02-06 20:29:00,62.8,22.3,29.85,North,-999,0.0,0.0,21,0.00,,,-99.99,FreeWX-Wi 1.01,2013-02-07 01:29:00,
2013-02-06 20:34:00,62.1,21.7,29.85,North,-999,0.0,0.0,21,0.00,,,-99.99,FreeWX-Wi 1.01,2013-02-07 01:34:00,
2013-02-06 20:39:00,61.7,21.4,29.85,North,-999,0.0,0.0,21,0.00,,,-99.99,FreeWX-Wi 1.01,2013-02-07 01:39:00,
2013-02-06 20:44:00,61.2,20.8,29.85,North,-999,0.0,3.6,21,0.00,,,-99.99,FreeWX-Wi 1.01,2013-02-07 01:44:00,
2013-02-06 20:49:00,60.8,20.7,29.85,SSW,205,1.0,4.0,21,0.00,,,-99.99,FreeWX-Wi 1.01,2013-02-07 01:49:00,
2013-02-06 20:54:00,60.4,21.4,29.85,SSW,204,1.0,4.0,22,0.00,,,-99.99,FreeWX-Wi 1.01,2013-02-07 01:54:00,
2013-02-06 20:59:00,60.3,21.2,29.85,SSW,204,1.0,4.0,22,0.00,,,-99.99,FreeWX-Wi 1.01,2013-02-07 01:59:00,
2013-02-06 21:04:00,60.1,23.2,29.85,SSW,204,1.0,4.9,24,0.00,,,-99.99,FreeWX-Wi 1.01,2013-02-07 02:04:00,
2013-02-06 21:09:00,60.1,23.2,29.85,SSW,203,1.0,4.5,24,0.00,,,-99.99,FreeWX-Wi 1.01,2013-02-07 02:09:00,
2013-02-06 21:14:00,59.9,23.0,29.85,SSW,203,2.0,4.5,24,0.00,,,-99.99,FreeWX-Wi 1.01,2013-02-07 02:14:00,
2013-02-06 21:19:00,59.7,22.8,29.85,SSW,202,2.0,4.0,24,0.00,,,-99.99,FreeWX-Wi 1.01,2013-02-07 02:19:00,
2013-02-06 21:24:00,59.7,22.8,29.85,SSW,202,2.0,3.6,24,0.00,,,-99.99,FreeWX-Wi 1.01,2013-02-07 02:24:00,
2013-02-06 21:29:00,59.5,22.6,29.85,SSW,201,2.0,4.9,24,0.00,,,-99.99,FreeWX-Wi 1.01,2013-02-07 02:29:00,
2013-02-06 21:34:00,59.5,23.7,29.85,SSW,200,2.0,4.9,25,0.00,,,-99.99,FreeWX-Wi 1.01,2013-02-07 02:34:00,
2013-02-06 21:39:00,59.4,23.5,29.85,SSW,200,3.0,5.8,25,0.00,,,-99.99,FreeWX-Wi 1.01,2013-02-07 02:39:00,
2013-02-06 21:44:00,59.4,23.5,29.85,SSW,200,3.0,4.5,25,0.00,,,-99.99,FreeWX-Wi 1.01,2013-02-07 02:44:00,
2013-02-06 21:49:00,59.4,23.5,29.85,SSW,201,3.0,3.6,25,0.00,,,-99.99,FreeWX-Wi 1.01,2013-02-07 02:49:00,
2013-02-06 21:54:00,59.4,23.5,29.88,SSW,202,3.0,4.0,25,0.00,,,-99.99,FreeWX-Wi 1.01,2013-02-07 02:54:00,
2013-02-06 21:59:00,59.2,23.4,29.88,SSW,203,3.0,4.9,25,0.00,,,-99.99,FreeWX-Wi 1.01,2013-02-07 02:59:00,
2013-02-06 22:04:00,59.2,23.4,29.88,SSW,203,3.0,4.9,25,0.00,,,-99.99,FreeWX-Wi 1.01,2013-02-07 03:04:00,
2013-02-06 22:09:00,59.0,23.2,29.88,SSW,205,3.0,3.6,25,0.00,,,-99.99,FreeWX-Wi 1.01,2013-02-07 03:09:00,
2013-02-06 22:14:00,59.0,23.2,29.88,SSW,205,3.0,5.4,25,0.00,,,-99.99,FreeWX-Wi 1.01,2013-02-07 03:14:00,
2013-02-06 22:19:00,59.0,23.2,29.88,SSW,206,3.0,4.9,25,0.00,,,-99.99,FreeWX-Wi 1.01,2013-02-07 03:19:00,
2013-02-06 22:24:00,59.0,23.2,29.88,SSW,206,3.0,4.9,25,0.00,,,-99.99,FreeWX-Wi 1.01,2013-02-07 03:24:00,
2013-02-06 22:29:00,58.8,24.1,29.88,SSW,205,3.0,5.4,26,0.00,,,-99.99,FreeWX-Wi 1.01,2013-02-07 03:29:00,
2013-02-06 22:34:00,58.1,23.4,29.88,SSW,201,3.0,4.5,26,0.00,,,-99.99,FreeWX-Wi 1.01,2013-02-07 03:34:00,
2013-02-06 22:39:00,57.7,23.2,29.88,SSW,199,3.0,4.9,26,0.00,,,-99.99,FreeWX-Wi 1.01,2013-02-07 03:39:00,
2013-02-06 22:44:00,58.1,24.3,29.88,SSW,198,3.0,5.4,27,0.00,,,-99.99,FreeWX-Wi 1.01,2013-02-07 03:44:00,
2013-02-06 22:49:00,58.3,24.4,29.88,SSW,195,3.0,4.0,27,0.00,,,-99.99,FreeWX-Wi 1.01,2013-02-07 03:49:00,
2013-02-06 22:54:00,58.1,24.3,29.88,South,191,3.0,5.4,27,0.00,,,-99.99,FreeWX-Wi 1.01,2013-02-07 03:54:00,
2013-02-06 22:59:00,58.1,24.3,29.88,South,186,3.0,3.6,27,0.00,,,-99.99,FreeWX-Wi 1.01,2013-02-07 03:59:00,
2013-02-06 23:04:00,58.1,24.3,29.88,South,184,3.0,4.0,27,0.00,,,-99.99,FreeWX-Wi 1.01,2013-02-07 04:04:00,
2013-02-06 23:09:00,57.9,25.0,29.88,South,182,3.0,3.1,28,0.00,,,-99.99,FreeWX-Wi 1.01,2013-02-07 04:09:00,
2013-02-06 23:14:00,57.6,24.6,29.88,South,180,3.0,0.0,28,0.00,,,-99.99,FreeWX-Wi 1.01,2013-02-07 04:14:00,
2013-02-06 23:19:00,57.4,25.3,29.88,South,179,2.0,0.0,29,0.00,,,-99.99,FreeWX-Wi 1.01,2013-02-07 04:19:00,
2013-02-06 23:24:00,57.0,25.2,29.88,South,175,2.0,3.1,29,0.00,,,-99.99,FreeWX-Wi 1.01,2013-02-07 04:24:00,
2013-02-06 23:29:00,56.8,25.7,29.88,South,173,2.0,3.6,30,0.00,,,-99.99,FreeWX-Wi 1.01,2013-02-07 04:29:00,
2013-02-06 23:34:00,56.7,26.4,29.88,South,172,2.0,4.9,31,0.00,,,-99.99,FreeWX-Wi 1.01,2013-02-07 04:34:00,
2013-02-06 23:39:00,56.5,28.4,29.88,South,172,2.0,5.4,34,0.00,,,-99.99,FreeWX-Wi 1.01,2013-02-07 04:39:00,
2013-02-06 23:44:00,56.7,29.3,29.88,South,175,2.0,6.3,35,0.00,,,-99.99,FreeWX-Wi 1.01,2013-02-07 04:44:00,
2013-02-06 23:49:00,56.7,30.0,29.88,South,177,2.0,4.0,36,0.00,,,-99.99,FreeWX-Wi 1.01,2013-02-07 04:49:00,
2013-02-06 23:54:00,56.7,30.0,29.88,South,179,2.0,3.1,36,0.00,,,-99.99,FreeWX-Wi 1.01,2013-02-07 04:54:00,
2013-02-06 23:59:00,56.7,30.0,29.88,South,182,2.0,4.0,36,0.00,,,-99.99,FreeWX-Wi 1.01,2013-02-07 04:59:00,